Weather in Yaroslavka

Russia / Chuvash Republic     55°59′30″N   46°36′33″E
temp.,
°C
wind,
m/s
gust,
m/s
humid.,
%
clouds,
%
prec.,
mm/h
press.,
hPa
HPBL,
m
15 april, thu
thu1500:00+10sse35871 0.0 102163
03:00+9s33880 0.0 102128
06:00+9s338787 0.0 102035
09:00+12s258281 0.0 1020151
12:00+18ssw335299 0.0 1019930
15:00+18wsw1144100 0.0 10181613
18:00+16nne115644 0.0 101811
21:00+12ne5984100 0.1 1020251
16 april, fri
fri1600:00+9ne61094100 0.0 1021413
03:00+7ne61190100 0.0 1022469
06:00+6ne6118799 0.0 1023428
09:00+7ene61084100 0.0 1024476
12:00+7ene688099 0.0 1025527
15:00+10ene587297 0.0 1025836
18:00+9ene51075100 0.0 1025449
21:00+7ene5117166 0.0 1026400
17 april, sat
sat1700:00+4ne512765 0.0 1027267
03:00+3ene512775 0.0 1028260
06:00+3ene511746 0.0 1028276
09:00+7ene69535 0.0 1028556
12:00+11ene67365 0.0 10281077
15:00+12ene56334 0.0 10271320
18:00+10ene47490 0.0 1027182
21:00+6ne410660 0.0 1027178
18 april, sun
sun1800:00+4ene49720 0.0 1027166
03:00+2ene37770 0.0 1027127
06:00+3ne38780 0.0 1027176
09:00+8ene58570 0.0 1026699
12:00+11ene574472 0.0 10261480
15:00+12ene5742100 0.0 10251800
18:00+10ne71158100 0.0 1026675
21:00+5ene6127249 0.0 1028546
19 april, mon
mon1900:00+3ene5126252 0.0 1029412
03:00+1ene6126483 0.0 1030428
06:000ene6126259 0.0 1031472
09:00+4e795134 0.0 1031966
12:00+7e794135 0.0 10311652
15:00+8e783521 0.0 10301760
18:00+6e694130 0.0 1031784
21:00+2ene411530 0.0 1031279